Weather History for Vernon, TX

Change the Weather History Date:

Saturday, April 19, 2014

  Actual Average (KLTS) Record (KLTS)
Temperature  
Mean Temperature 64 °F -  
Max Temperature 81 °F 73 °F 87 °F (1999)
Min Temperature 49 °F 48 °F 29 °F (2013)
Growing Degree Days 14 (Base 50)    
Moisture  
Dew Point 50 °F    
Average Humidity 59    
Maximum Humidity 94    
Minimum Humidity 32    
Precipitation  
Precipitation 0.00 in - - ()
Sea Level Pressure  
Sea Level Pressure 30.10 in    
Wind  
Wind Speed 8 mph (SSE)    
Max Wind Speed 18 mph    
Max Gust Speed 23 mph    
Visibility 9 miles    
Events      
Averages and records for this station are not official NWS values.
T = Trace of Precipitation, MM = Missing Value Source: NWS Daily Summary

Daily Weather History Graph

Daily Weather History Graph

Search for Another Location

Airport:

Trip Planner

Search our weather history database for the weather conditions in past years. The results will help you decide how hot, cold, wet, or windy it might be!

Date:

Astronomy

Apr. 19, 2014 Rise Set
Actual Time 7:01 AM CDT 8:11 PM CDT
Civil Twilight 6:35 AM CDT 8:38 PM CDT
Nautical Twilight 6:04 AM CDT 9:09 PM CDT
Astronomical Twilight 5:32 AM CDT 9:41 PM CDT
Moon No Moon Rise 10:27 AM CDT (4/19)
Length of Visible Light 14h 02m
Length of Day
13h 10m
Waning Gibbous, 78% of the Moon is Illuminated
Apr 19
Waning Gibbous
Apr 22
Last Quarter
Apr 29
New
May 6
First Quarter
May 14
Full

Hourly Weather History & Observations

Time (CDT) Temp. Dew Point Humidity Pressure Visibility Wind Dir Wind Speed Gust Speed Precip Events Conditions
12:15 AM 56.8 °F 50.0 °F 78% 30.13 in 10.0 mi SE 5.8 mph - N/A   Clear
12:35 AM 57.7 °F 50.4 °F 76% 30.13 in 10.0 mi SE 6.9 mph - N/A   Clear
12:55 AM 57.6 °F 50.4 °F 77% 30.13 in 10.0 mi SE 4.6 mph - N/A   Clear
1:15 AM 57.0 °F 50.0 °F 77% 30.13 in 10.0 mi SSE 5.8 mph - N/A   Clear
1:35 AM 56.8 °F 50.0 °F 78% 30.13 in 10.0 mi SSE 8.1 mph - N/A   Clear
1:55 AM 56.7 °F 50.2 °F 79% 30.13 in 10.0 mi SSE 5.8 mph - N/A   Clear
2:15 AM 55.8 °F 50.0 °F 81% 30.12 in 10.0 mi SE 4.6 mph - N/A   Clear
2:35 AM 55.6 °F 50.0 °F 81% 30.12 in 10.0 mi SSE 5.8 mph - N/A   Clear
2:55 AM 55.0 °F 49.8 °F 83% 30.11 in 10.0 mi SSE 4.6 mph - N/A   Clear
3:15 AM 55.0 °F 49.8 °F 83% 30.11 in 10.0 mi South 5.8 mph - N/A   Clear
3:35 AM 55.4 °F 50.0 °F 82% 30.11 in 10.0 mi SSE 4.6 mph - N/A   Clear
3:55 AM 54.7 °F 49.3 °F 82% 30.11 in 10.0 mi SSE 5.8 mph - N/A   Clear
4:15 AM 54.0 °F 49.3 °F 84% 30.11 in 10.0 mi South 4.6 mph - N/A   Clear
4:35 AM 54.0 °F 49.3 °F 84% 30.11 in 10.0 mi South 5.8 mph - N/A   Clear
4:55 AM 53.8 °F 49.5 °F 85% 30.11 in 7.0 mi SSE 5.8 mph - N/A   Clear
5:15 AM 53.8 °F 49.5 °F 85% 30.11 in 10.0 mi SE 3.5 mph - N/A   Clear
5:35 AM 53.2 °F 48.9 °F 85% 30.11 in 7.0 mi South 4.6 mph - N/A   Clear
5:55 AM 52.5 °F 48.7 °F 87% 30.11 in 7.0 mi Calm Calm - N/A   Clear
6:15 AM 52.9 °F 49.1 °F 87% 30.11 in 10.0 mi Calm Calm - N/A   Clear
6:35 AM 52.5 °F 48.6 °F 86% 30.12 in 7.0 mi ESE 4.6 mph - N/A   Clear
6:55 AM 51.6 °F 48.0 °F 87% 30.12 in 5.0 mi Calm Calm - N/A   Clear
7:15 AM 49.3 °F 46.6 °F 90% 30.13 in 1.5 mi Calm Calm - N/A   Unknown
7:35 AM 50.0 °F 48.2 °F 94% 30.14 in 5.0 mi Calm Calm - N/A   Clear
7:55 AM 49.6 °F 47.3 °F 92% 30.14 in 2.0 mi Calm Calm - N/A   Clear
8:15 AM 52.0 °F 49.8 °F 92% 30.15 in 5.0 mi Calm Calm - N/A   Clear
8:35 AM 55.9 °F 51.3 °F 84% 30.16 in 10.0 mi SE 3.5 mph - N/A   Clear
8:55 AM 59.0 °F 51.8 °F 77% 30.17 in 10.0 mi South 5.8 mph - N/A   Clear
9:15 AM 61.7 °F 51.8 °F 70% 30.17 in 10.0 mi South 9.2 mph - N/A   Clear
9:35 AM 63.5 °F 51.8 °F 66% 30.17 in 10.0 mi South 9.2 mph - N/A   Clear
9:55 AM 65.3 °F 51.8 °F 62% 30.17 in 10.0 mi South 11.5 mph - N/A   Clear
10:15 AM 66.6 °F 51.8 °F 59% 30.16 in 10.0 mi South 10.4 mph - N/A   Clear
10:35 AM 68.2 °F 51.8 °F 56% 30.16 in 10.0 mi South 12.7 mph - N/A   Clear
10:55 AM 70.0 °F 52.3 °F 53% 30.15 in 10.0 mi South 12.7 mph 16.1 mph N/A   Clear
11:15 AM 71.8 °F 52.0 °F 50% 30.15 in 10.0 mi South 15.0 mph 19.6 mph N/A   Clear
11:35 AM 72.0 °F 51.8 °F 49% 30.14 in 10.0 mi SSE 13.8 mph - N/A   Clear
11:55 AM 72.3 °F 52.0 °F 49% 30.13 in 10.0 mi South 15.0 mph 19.6 mph N/A   Clear
12:15 PM 73.0 °F 52.0 °F 48% 30.13 in 10.0 mi SSE 15.0 mph 21.9 mph N/A   Clear
12:35 PM 74.7 °F 52.2 °F 45% 30.13 in 10.0 mi South 10.4 mph 19.6 mph N/A   Clear
12:55 PM 75.9 °F 51.4 °F 42% 30.12 in 10.0 mi South 13.8 mph 18.4 mph N/A   Clear
1:15 PM 76.3 °F 51.3 °F 41% 30.11 in 10.0 mi SSE 11.5 mph 20.7 mph N/A   Clear
1:35 PM 77.5 °F 51.3 °F 40% 30.11 in 10.0 mi South 18.4 mph - N/A   Clear
1:55 PM 78.3 °F 51.1 °F 39% 30.11 in 10.0 mi SSE 15.0 mph - N/A   Clear
2:15 PM 78.1 °F 51.4 °F 39% 30.10 in 10.0 mi SSE 17.3 mph - N/A   Clear
2:35 PM 77.4 °F 51.4 °F 40% 30.10 in 10.0 mi South 16.1 mph 21.9 mph N/A   Clear
2:55 PM 77.7 °F 51.3 °F 40% 30.09 in 10.0 mi SSE 15.0 mph 19.6 mph N/A   Clear
3:15 PM 78.1 °F 50.5 °F 38% 30.08 in 10.0 mi SSE 13.8 mph - N/A   Clear
3:35 PM 78.6 °F 49.8 °F 36% 30.08 in 10.0 mi SSE 12.7 mph 17.3 mph N/A   Clear
3:55 PM 79.0 °F 49.6 °F 36% 30.07 in 10.0 mi SSE 13.8 mph 23.0 mph N/A   Clear
4:15 PM 79.3 °F 49.3 °F 35% 30.06 in 10.0 mi SSE 15.0 mph 19.6 mph N/A   Clear
4:35 PM 79.7 °F 48.9 °F 34% 30.05 in 10.0 mi SE 17.3 mph - N/A   Clear
4:55 PM 80.8 °F 48.0 °F 32% 30.04 in 10.0 mi SSE 15.0 mph 21.9 mph N/A   Clear
5:15 PM 80.8 °F 48.0 °F 32% 30.04 in 10.0 mi SSE 13.8 mph 21.9 mph N/A   Scattered Clouds
5:40 PM 79.3 °F 47.8 °F 33% 30.04 in 10.0 mi SSE 12.7 mph 17.3 mph N/A   Clear
5:55 PM 79.3 °F 47.3 °F 32% 30.05 in 10.0 mi South 12.7 mph - N/A   Scattered Clouds
6:20 PM 80.1 °F 47.3 °F 32% 30.05 in 10.0 mi South 12.7 mph 17.3 mph N/A   Scattered Clouds
6:35 PM 80.1 °F 47.3 °F 32% 30.04 in 10.0 mi South 15.0 mph 21.9 mph N/A   Clear
6:55 PM 78.4 °F 47.5 °F 34% 30.04 in 10.0 mi SSE 11.5 mph - N/A   Clear
7:15 PM 77.2 °F 48.0 °F 36% 30.04 in 10.0 mi SSE 11.5 mph - N/A   Clear
7:35 PM 76.3 °F 48.4 °F 37% 30.04 in 10.0 mi SSE 12.7 mph - N/A   Clear
7:55 PM 75.4 °F 48.7 °F 39% 30.04 in 10.0 mi SE 9.2 mph - N/A   Clear
8:15 PM 73.9 °F 49.5 °F 42% 30.04 in 10.0 mi SE 9.2 mph - N/A   Clear
8:35 PM 72.5 °F 50.0 °F 45% 30.03 in 10.0 mi SE 11.5 mph - N/A   Clear
8:55 PM 72.5 °F 50.0 °F 45% 30.03 in 10.0 mi SE 12.7 mph - N/A   Clear
9:15 PM 71.4 °F 50.2 °F 47% 30.03 in 10.0 mi SE 8.1 mph - N/A   Clear
9:35 PM 69.8 °F 50.4 °F 50% 30.05 in 10.0 mi SSE 10.4 mph - N/A   Clear
9:55 PM 69.8 °F 50.0 °F 49% 30.03 in 10.0 mi SE 15.0 mph - N/A   Clear
10:15 PM 69.8 °F 50.0 °F 49% 30.05 in 10.0 mi SSE 12.7 mph - N/A   Clear
10:35 PM 69.8 °F 50.0 °F 49% 30.05 in 10.0 mi SSE 15.0 mph 20.7 mph N/A   Clear
10:55 PM 69.6 °F 50.2 °F 50% 30.06 in 10.0 mi SSE 13.8 mph - N/A   Clear
11:15 PM 69.4 °F 50.2 °F 50% 30.08 in 10.0 mi SSE 13.8 mph - N/A   Clear
11:35 PM 69.4 °F 50.2 °F 50% 30.09 in 10.0 mi South 11.5 mph 17.3 mph N/A   Clear
11:55 PM 68.9 °F 50.4 °F 52% 30.09 in 10.0 mi South 11.5 mph - N/A   Clear